Tracking 28790 objects as of 18-Apr-2024
HD Live streaming from Space Station
objects crossing your sky now

CZ-4 DEB

Track CZ-4 DEB now!
10-day predictions


NORAD ID: 26122
Int'l Code: 1999-057J
Perigee: 718.6 km
Apogee: 1,517.6 km
Inclination: 98.9 °
Period: 107.5 minutes
Semi major axis: 7489 km
RCS: 0.104 m2 (medium)
Launch date: October 14, 1999
Source: People's Republic of China (PRC)
Launch site: Taiyaun Space Center, China (TSC)

Note: This is SATELLITE DEBRIS
Your satellite tracking list
Your tracking list is empty




NASA's NSSDC Master Catalog

Two Line Element Set (TLE):
1 26122U 99057J   24109.53691647  .00002756  00000-0  22426-2 0  9998
2 26122  98.8889 312.3302 0533455 251.9100 163.4900 13.39547161174153
Source of the keplerian elements: AFSPC